Showing default

COSMOS 2520, 42907

Orbit data source: Space-Track

COSMOS 2520, 42907 is a Commonwealth of Independent States-origin payload satellite in GEO that was launched on Wed, 16 Aug 2017 UTC via a PROTON-M/BRIZ-M launch vehicle from the Tyuratam Missile And Space Complex (TTMTR). Payload-class satellites include a variety of spacecraft equipped with specific instruments for various scientific and technological missions. These include communications satellites like Starlink; space stations such as the ISS; scientific satellites like the Hubble; Earth observation satellites from companies like Planet Labs, Umbra, and HawkEye 360; GPS; miniature CubeSats for education and research; and military/defense satellites.

Not visible in the next 10 days
Identifier
42907, 2017-046A
Orbit
GEO
Last TLE update
2 days ago
Origin
Manufacturer
Resehetnev ISS
Mission
Operational Defense Communications
Bus & Motor
EKSPRESS-2000?, AOCS
Mass
~3,162 kg wet, ~2,000 kg dry
Launch date (UTC)
2017-08-16 (8 years ago)
Launch vehicle
PROTON-M/BRIZ-M
Launch site
Tyuratam Missile And Space Complex (TTMTR)
Object type
Payload
Rocket body
Debris
Shape & HBR
Cyl + 2 Pan, 27 m
Radar Cross Section
24.423 m²

Expand to show TLE details & history

TLE from 2 days ago
0 COSMOS 2520
1 42907U 17046A   25107.92267052  .00000146  00000-0  00000-0 0  9999
2 42907   0.0299 104.9596 0000612   0.9228 117.5630  1.00271984 28137
Epoch: 2025-04-17T22:08Z
Definitive object data (Epoch: 2025-04-17T22:08:38.732Z)
Latitude
0.00762°
Longitude
44.99575°
Altitude
35,787.223 km
Speed
3.075 km/s
True Right ascension
14h 53m 46s
True Declination
0° 00' 27"
Sunlit
Object was in daylight at TLE epoch
Visualization TLE readout
Latitude
0.02242°
Longitude
65.47976°
Altitude
35,787.68 km
Speed
3.075 km/s
Apparent Right ascension
16h 27m 45s
Apparent Declination
-4° 59' 08"
Sunlit
Object is in daylight
Visualization observer readout
Local Sidereal Time
06:15:14
Azimuth
41.802° NE
Elevation
-47.506°
Doppler factor
1
Orbital elements
Apogee altitude
35,790.19 km
Perigee altitude
35,785.029 km
Semi-major axis
42,165.747 km
Eccentricity
0.0000612
Inclination
0.0299°
RAAN
104.9596°
Arg. of periapsis
0.9228°
True anomaly
117.56922°
Mean anomaly
117.563°
Eccentric anomaly
117.56611°
Mean motion
0.25067 °/min
BSTAR
Unknown
Orbital period
1436.15 mins
Loading historical data...
42907 neighbors
Loading maneuver chart data...
Loading SW <> Apogee altitude chart data...
Loading historical data...
Loading historical data...
Loading historical data...
Loading historical data...
Loading historical data...
Loading historical data...
Loading historical data...
Other satellites on launch #46 in the year 2017 (2017-08-16 UTC)

COSMOS 2520 Visibility forecast

Observer location: undefined°, undefined°

COSMOS 2520 is not visible in the next 10 days
Span
Click to sort rows by Start time (UTC) header in descending order
Start Az.
Max El. time (UTC)
Max El. Az.
Max El.
End time (UTC)
End Az.
|